Location: Unspecified
(49.9820°N, 20.4363°E)
Time: 05:00:07
(UTC+02:00)

Vanguard 3 - Pass Details

Date: 18 May 2026
Orbit: 507 x 3204 km, 33.3° (Epoch: 6 June)

Event Time Altitude Azimuth Distance (km) Brightness Sun altitude
Rises 10:24:41 0° 176° (S) 5,921 11.9 50.1°
Reaches altitude 10° 10:31:38 10° 154° (SSE) 5,451 12.1 51.0°
Maximum altitude 10:38:29 14° 130° (SE) 5,506 12.3 51.8°
Drops below altitude 10° 10:45:57 10° 106° (ESE) 6,073 12.3 52.7°
Sets 10:54:37 0° 86° (E) 7,141 12.3 53.7°
